Regional Weather Roundup
Issued by NWS

Home | Current Version | Previous Version | Graphics & Text | Print | Product List | Glossary On
Versions: 1 2 3 4 5 6 7 8 9 10 11 12 13 14 15 16 17 18 19 20 21 22 23 24 25 26 27 28 29 30 31 32 33 34 35 36 37 38 39 40 41 42 43 44 45 46 47 48 49 50
000
ASUS43 KTOP 180459
RWRKS

WEATHER ROUNDUP FOR KANSAS
NATIONAL WEATHER SERVICE GOODLAND KS
1100 PM CST SAT FEB 17 2018

NOTE:  "FAIR" INDICATES FEW OR NO CLOUDS BELOW 12,000 FEET WITH NO
SIGNIFICANT WEATHER AND/OR OBSTRUCTIONS TO VISIBILITY.

KSZ001>006-013>018-027>032-041>047-180600-
NORTHWEST KANSAS

CITY           SKY/WX    TMP DP  RH WIND       PRES   REMARKS
GOODLAND       CLEAR     36  13  38 S22       29.90F WCI  25
HAYS           CLEAR     36  12  37 S10       30.06F WCI  28
HILL CITY      CLEAR     38  14  37 S12       30.02F WCI  30
RUSSELL        CLEAR     39  14  36 S13       30.06F WCI  31
$$

KSZ061>065-074>080-084>089-180600-
SOUTHWEST KANSAS

CITY           SKY/WX    TMP DP  RH WIND       PRES   REMARKS
DODGE CITY     CLOUDY    37   9  31 S15       30.08F WCI  28
GARDEN CITY    CLOUDY    30   7  37 S9        30.04F
GREAT BEND     CLEAR     36  11  35 S13       30.10F WCI  27
LIBERAL        CLOUDY    35   8  32 S14       30.08F WCI  26
$$

KSZ066>073-081>083-090>101-180600-
SOUTHEAST KANSAS

CITY           SKY/WX    TMP DP  RH WIND       PRES   REMARKS
CHANUTE        CLEAR     33  21  61 SE8       30.19S
COFFEYVILLE    CLEAR     36  30  79 S3        30.20R
HUTCHINSON     CLOUDY    29  12  49 SE3       30.13F
MEDICINE LODGE   N/A     40  12  32 SE6       30.14S
NEWTON         CLOUDY    36  11  35 S12       30.15F WCI  28
PARSONS        CLEAR     27  25  92 CALM      30.20S
WICHITA INTL   CLOUDY    38  13  35 SE5       30.15F
WICHITA JABRA  CLOUDY    38  14  37 S6        30.16S
WICHITA MCCONL CLOUDY    40  12  31 SE7       30.15F
WINFIELD       CLOUDY    38  17  42 E8        30.17F
$$

KSZ007>012-019>026-033>040-048>060-102>105-180600-
NORTHEAST KANSAS

CITY           SKY/WX    TMP DP  RH WIND       PRES   REMARKS
CONCORDIA      CLEAR     38  16  40 S13       30.08F WCI  30
EMPORIA        CLEAR     32  15  49 S9        30.16S
LAWRENCE       CLEAR     25  20  81 CALM      30.18S
MANHATTAN      CLEAR     29  15  56 CALM      30.14S
OLATHE IND     CLEAR     34  20  56 SE5       30.19S
OLATHE EXE     CLEAR     34  21  59 S5        30.18S
SALINA         CLEAR     32  13  45 S7        30.11F
TOPEKA BILLARD CLEAR     29  21  72 NE3       30.16F
TOPEKA FORBES  CLEAR     29  18  63 SE3       30.15F
$$




USA.gov is the U.S. government's official web portal to all federal, state and local government web resources and services.